Danbury, CT

8:45 PM EST on January 16, 2017 (GMT -0500)
Danbury Municipal

Weather History for KDXR - January, 2015

Change the Weather History Date:

Friday, January 30, 2015

  Actual Average Record
Temperature  
Mean Temperature 24 °F -  
Max Temperature 33 °F 36 °F 57 °F (2002)
Min Temperature 15 °F 17 °F -2 °F (1952)
Degree Days  
Heating Degree Days 40    
Moisture  
Dew Point 22 °F    
Average Humidity 75    
Maximum Humidity 86    
Minimum Humidity 47    
Precipitation  
Precipitation 0.07 in - - ()
Sea Level Pressure  
Sea Level Pressure 29.87 in    
Wind  
Wind Speed 5 mph (West)    
Max Wind Speed 17 mph    
Max Gust Speed 26 mph    
Visibility 5 miles    
Events Snow    
Averages and records for this station are not official NWS values.
T = Trace of Precipitation, MM = Missing Value Source: NWS Daily Summary

Daily Weather History Graph

Daily Weather History Graph

Search for Another Location

Airport or City:

Trip Planner

Search our weather history database for the weather conditions in past years. The results will help you decide how hot, cold, wet, or windy it might be!

Date:

Astronomy

Jan. 30, 2015 Rise Set
Actual Time 7:07 AM EST 5:07 PM EST
Civil Twilight 6:38 AM EST 5:36 PM EST
Nautical Twilight 6:04 AM EST 6:10 PM EST
Astronomical Twilight 5:32 AM EST 6:42 PM EST
Moon 1:40 PM EST (1/30) 3:34 AM EST (1/30)
Length of Visible Light 10h 58m
Length of Day
9h 59m
Waxing Gibbous, 84% of the Moon is Illuminated
Jan 30
Waxing Gibbous
Feb 3
Full
Feb 11
Last Quarter
Feb 18
New
Feb 25
First Quarter

Hourly Weather History & Observations

Time (EST) Temp. Windchill Dew Point Humidity Pressure Visibility Wind Dir Wind Speed Gust Speed Precip Events Conditions
12:06 AM 30.0 °F 26.5 °F 24.1 °F 79% 29.97 in 2.5 mi South 3.5 mph - 0.00 in Snow Light Snow
12:16 AM 30.0 °F 25.2 °F 24.1 °F 79% 29.97 in 1.5 mi South 4.6 mph - 0.00 in Snow Light Snow
12:27 AM 30.0 °F 24.1 °F 24.1 °F 79% 29.96 in 2.5 mi Variable 5.8 mph - 0.00 in Snow Light Snow
12:53 AM 30.0 °F - 25.0 °F 82% 29.96 in 2.5 mi Calm Calm - 0.00 in Snow Light Snow
1:06 AM 30.0 °F 25.2 °F 25.0 °F 82% 29.94 in 1.5 mi Variable 4.6 mph - 0.00 in Snow Light Snow
1:35 AM 30.0 °F 26.5 °F 25.0 °F 82% 29.93 in 2.5 mi SSW 3.5 mph - 0.01 in Snow Light Snow
1:53 AM 30.0 °F 26.5 °F 25.0 °F 82% 29.94 in 1.2 mi South 3.5 mph - 0.01 in Snow Light Snow
2:29 AM 30.0 °F 25.2 °F 25.0 °F 82% 29.91 in 1.0 mi South 4.6 mph - 0.01 in Snow Light Snow
2:43 AM 30.0 °F - 26.1 °F 85% 29.90 in 1.2 mi Calm Calm - 0.02 in Snow Light Snow
2:53 AM 30.0 °F - 26.1 °F 85% 29.91 in 1.5 mi Calm Calm - 0.02 in Snow Light Snow
3:01 AM 30.0 °F - 26.1 °F 85% 29.89 in 1.0 mi Calm Calm - 0.01 in Snow Light Snow
3:21 AM 30.0 °F 26.5 °F 26.1 °F 85% 29.88 in 1.2 mi South 3.5 mph - 0.01 in Snow Light Snow
3:34 AM 30.9 °F 25.2 °F 26.1 °F 82% 29.88 in 2.0 mi South 5.8 mph - 0.02 in Snow Light Snow
3:46 AM 30.9 °F 26.2 °F 26.1 °F 82% 29.87 in 3.0 mi SSW 4.6 mph - 0.02 in Snow Light Snow
3:53 AM 30.9 °F 26.2 °F 26.1 °F 82% 29.88 in 1.8 mi SW 4.6 mph - 0.02 in Snow Light Snow
4:03 AM 30.9 °F 25.2 °F 26.1 °F 82% 29.86 in 3.0 mi SSW 5.8 mph - 0.00 in Snow Light Snow
4:29 AM 30.9 °F 26.2 °F 25.0 °F 79% 29.85 in 8.0 mi SW 4.6 mph - 0.00 in   Overcast
4:53 AM 30.9 °F 26.2 °F 25.0 °F 79% 29.86 in 8.0 mi WSW 4.6 mph - 0.00 in   Overcast
5:03 AM 30.9 °F 26.2 °F 25.0 °F 79% 29.85 in 6.0 mi WSW 4.6 mph - 0.00 in Snow Light Snow
5:48 AM 30.2 °F - 26.6 °F 86% 29.84 in 5.0 mi Calm Calm - 0.00 in Snow Light Snow
5:53 AM 30.9 °F - 26.1 °F 82% 29.85 in 5.0 mi Calm Calm - 0.00 in Snow Light Snow
6:19 AM 30.0 °F 26.5 °F 26.1 °F 85% 29.83 in 3.0 mi West 3.5 mph - 0.00 in Snow Light Snow
6:53 AM 30.0 °F 26.5 °F 26.1 °F 85% 29.84 in 3.0 mi West 3.5 mph - 0.00 in Snow Light Snow
7:53 AM 30.0 °F 25.2 °F 24.1 °F 79% 29.84 in 6.0 mi West 4.6 mph - 0.00 in Snow Light Snow
8:15 AM 28.9 °F 25.2 °F 23.0 °F 78% 29.82 in 2.0 mi NW 3.5 mph - 0.01 in Snow Light Snow
8:34 AM 28.9 °F 25.2 °F 24.1 °F 82% 29.83 in 1.5 mi West 3.5 mph - 0.01 in Snow Light Snow
8:49 AM 28.4 °F 22.2 °F 24.8 °F 86% 29.84 in 2.0 mi NW 5.8 mph - 0.01 in Snow Light Snow
8:53 AM 28.9 °F 22.8 °F 23.0 °F 78% 29.85 in 1.8 mi WNW 5.8 mph - 0.01 in Snow Light Snow
9:07 AM 28.9 °F 22.8 °F 23.0 °F 78% 29.85 in 1.0 mi West 5.8 mph - 0.00 in Snow Light Snow
9:51 AM 28.4 °F 21.2 °F 24.8 °F 86% 29.85 in 0.8 mi WNW 6.9 mph - 0.01 in Snow Light Snow
9:53 AM 28.9 °F 22.8 °F 24.1 °F 82% 29.86 in 0.8 mi WNW 5.8 mph - 0.01 in Snow Light Snow
10:07 AM 28.9 °F 25.2 °F 24.1 °F 82% 29.84 in 1.0 mi Variable 3.5 mph - 0.00 in Snow Light Snow
10:14 AM 28.9 °F 22.8 °F 24.1 °F 82% 29.84 in 1.5 mi Variable 5.8 mph - 0.00 in Snow Light Snow
10:22 AM 28.9 °F 21.9 °F 24.1 °F 82% 29.84 in 2.5 mi WNW 6.9 mph - 0.00 in Snow Light Snow
10:29 AM 28.9 °F 21.1 °F 23.0 °F 78% 29.84 in 4.0 mi WNW 8.1 mph - 0.00 in   Haze
10:53 AM 30.0 °F 24.1 °F 24.1 °F 79% 29.85 in 6.0 mi NW 5.8 mph - 0.00 in   Haze
11:30 AM 30.0 °F 22.4 °F 24.1 °F 79% 29.81 in 4.0 mi NW 8.1 mph - 0.00 in Snow Light Snow
11:53 AM 30.9 °F 24.3 °F 24.1 °F 76% 29.82 in 3.0 mi NW 6.9 mph - 0.00 in Snow Light Snow
12:14 PM 32.0 °F 23.6 °F 24.1 °F 73% 29.80 in 4.0 mi NW 10.4 mph - 0.00 in Snow Light Snow
12:53 PM 32.0 °F 26.4 °F 23.0 °F 69% 29.81 in 10.0 mi Variable 5.8 mph - 0.00 in   Overcast
1:53 PM 33.1 °F 26.1 °F 21.0 °F 61% 29.80 in 10.0 mi NNW 8.1 mph - N/A   Overcast
2:18 PM 33.1 °F 24.4 °F 21.0 °F 61% 29.79 in 10.0 mi NNW 11.5 mph 19.6 mph N/A   Overcast
2:53 PM 33.1 °F 23.4 °F 19.9 °F 59% 29.81 in 10.0 mi NW 13.8 mph 23.0 mph N/A   Overcast
3:53 PM 33.1 °F 23.9 °F 18.0 °F 54% 29.83 in 10.0 mi NW 12.7 mph 19.6 mph N/A   Mostly Cloudy
4:53 PM 30.9 °F 19.4 °F 12.9 °F 47% 29.85 in 9.0 mi NNW 17.3 mph 26.5 mph N/A   Overcast
5:53 PM 28.9 °F 17.7 °F 12.9 °F 51% 29.88 in 10.0 mi NW 15.0 mph 23.0 mph N/A   Overcast
6:53 PM 26.1 °F 14.0 °F 10.0 °F 51% 29.92 in 10.0 mi NW 15.0 mph 25.3 mph N/A   Scattered Clouds
7:53 PM 23.0 °F 11.1 °F 8.1 °F 53% 29.93 in 10.0 mi NW 12.7 mph 21.9 mph N/A   Clear
8:53 PM 19.9 °F 9.3 °F 3.9 °F 50% 29.95 in 10.0 mi NNW 9.2 mph 20.7 mph N/A   Clear
9:53 PM 18.0 °F 4.8 °F 3.0 °F 52% 29.97 in 10.0 mi NW 12.7 mph 19.6 mph N/A   Clear
10:53 PM 16.0 °F 2.9 °F 1.9 °F 54% 29.98 in 10.0 mi NNW 11.5 mph 23.0 mph N/A   Clear
11:53 PM 15.1 °F 1.8 °F -0.0 °F 51% 29.98 in 10.0 mi NNW 11.5 mph 21.9 mph N/A   Clear